Location: ?
(35.8563°N, 139.5179°E)
Time: 00:48:41
(UTC+00:00)

Daily predictions for brighter satellites

Satellite Brightness Start Highest point End
(mag) Time Altitude Azimuth Time Altitude Azimuth Time Altitude Azimuth
Cosmos 1092 Rocket 4.4 07:46:53 10° N 07:52:52 41° ENE 07:58:46 10° SSE
Meteor PRIRODA 3.8 07:52:33 10° S 07:56:11 77° WSW 07:59:49 10° NNW
CZ-2C R/B 3.6 07:54:38 10° NE 07:58:55 26° E 08:03:11 10° SSE
Cosmos 1782 3.5 07:55:45 10° SSE 07:59:22 34° E 08:03:01 10° NNE
Cosmos 540 Rocket 3.5 07:56:37 10° S 08:01:38 62° ESE 08:06:41 10° NNE
Cosmos 1602 4.4 07:58:37 10° NNE 08:02:06 32° E 08:05:35 10° SE
CZ-2C R/B 3.3 07:57:27 10° S 08:02:27 70° WSW 08:07:16 10° NNW
Cosmos 2034 Rocket 4.5 08:02:48 10° SSW 08:08:55 65° W 08:15:03 10° N
SJ 16-02 3.8 08:05:35 10° NW 08:09:17 27° W 08:12:58 10° SSW
SMAP 3.0 08:08:29 10° SSE 08:13:08 82° ENE 08:17:48 10° N
ATLAS CENTAUR R/B 4.2 08:02:30 10° SW 08:14:48 52° NW 08:19:47 10° NNE
Cosmos 1340 Rocket 3.2 08:11:46 10° NNW 08:15:50 71° W 08:19:52 10° S
Cosmos 2279 Rocket 4.5 08:10:17 10° SSE 08:15:56 38° E 08:21:35 10° NNE
SKYMED 2 4.2 08:12:24 10° NNE 08:16:22 34° E 08:20:19 10° SSE
Cosmos 1898 Rocket 3.5 08:11:24 10° N 08:16:34 57° ENE 08:21:39 10° SSE
CZ-2D R/B 3.6 08:13:35 10° SE 08:17:14 42° ENE 08:20:52 10° N
USA 276 3.1 08:15:10 10° NNW 08:17:55 27° NNE 08:19:46 16° E
Cosmos 1500 Rocket 3.8 08:16:50 10° N 08:21:16 74° W 08:25:37 10° S
Landsat 5 4.3 08:21:08 10° NE 08:24:39 28° E 08:28:04 10° SSE
USA 229 DEB 4.0 08:18:56 10° NNW 08:26:21 63° NE 08:34:09 10° SE
USA 229 4.0 08:19:02 10° NNW 08:26:26 63° NE 08:34:12 10° SE
Cosmos 44 3.9 08:21:54 10° NW 08:26:28 55° WSW 08:30:44 10° SSE
Cosmos 1656 4.2 08:22:21 10° NNW 08:27:50 62° WSW 08:33:22 10° S
H-2A R/B 2.1 08:23:20 10° SSE 08:28:27 56° ENE 08:33:26 10° N
Cosmos 1634 Rocket 4.0 08:24:33 10° S 08:30:52 85° E 08:37:14 10° N
Cosmos 1805 Rocket 3.4 08:28:26 10° N 08:32:47 83° E 08:37:06 10° S
Sich 1 2.9 08:30:05 10° N 08:34:21 65° E 08:38:37 10° SSE
Cosmos 1933 4.4 08:30:44 10° SSW 08:34:38 47° W 08:38:33 10° N
Meteor 2-21 4.4 08:29:16 10° N 08:35:19 68° E 08:41:18 10° SSE
CZ-2C R/B 3.0 08:32:46 10° SSW 08:35:54 21° SSE 08:37:58 15° ESE
Cosmos 1697 Rocket 2.6 08:32:06 10° NNW 08:37:44 75° ENE 08:43:19 10° SSE
Cosmos 1500 3.1 08:34:41 10° N 08:38:22 59° E 08:42:02 10° SSE
USA 234 3.2 08:32:58 10° SE 08:39:27 72° NE 08:45:58 10° NW
Cosmos 2369 3.9 08:34:29 10° N 08:40:03 50° ENE 08:45:34 10° SE
PSLV R/B 3.8 08:37:41 10° S 08:41:21 75° WSW 08:45:02 10° NNW
Cosmos 1980 Rocket 2.6 08:36:07 10° N 08:41:23 39° ENE 08:46:36 10° SE
deb Chang Zheng 4 3.7 08:39:58 10° SSE 08:44:07 50° ENE 08:48:18 10° N
Cosmos 2026 Rocket 3.9 08:38:54 10° N 08:45:03 89° WSW 08:51:06 10° S
SJ-11-01 4.5 08:41:54 10° SSE 08:46:26 47° ENE 08:50:59 10° N
Cosmos 2082 Rocket 2.4 08:43:17 10° SSW 08:48:58 76° WNW 08:54:40 10° NNE
NOSS 3-1 (A) 4.3 08:42:05 10° NNW 08:50:03 87° WSW 08:59:06 10° SSE
Cosmos 841 Rocket 4.0 08:45:16 10° SSW 08:50:21 58° WNW 08:55:26 10° N
SL-24 R/B - RUBIN 2 4.2 08:46:36 10° N 08:50:33 31° NE 08:50:57 31° ENE
Cosmos 2084 3.6 08:47:59 10° NW 08:52:22 78° WSW 08:56:55 10° SSE
Cosmos 1937 Rocket 3.6 08:53:21 10° NNW 08:58:40 80° WSW 09:03:57 10° SSE
Cosmos 2180 Rocket 4.4 08:55:03 10° S 09:01:22 70° E 09:07:39 10° NNE
COSMOS 2455 3.7 08:56:20 10° SW 09:02:08 49° WNW 09:07:59 10° NNE
COSMO-SKYMED 1 3.0 09:00:10 10° N 09:04:28 61° WNW 09:08:44 10° SSW
Cosmos 2278 4.0 08:59:13 10° N 09:04:40 44° ENE 09:07:30 25° ESE
GPS 2-04 Rocket1 2.6 09:01:35 10° W 09:05:43 85° S 09:06:37 53° ESE
Cosmos 1666 2.4 09:04:23 10° N 09:08:06 75° E 09:11:48 10° S
ARGOS 3.1 09:07:07 10° SSE 09:12:32 87° ENE 09:17:58 10° NNW
Cosmos 372 Rocket 3.9 09:08:51 10° NNW 09:14:06 88° ENE 09:19:21 10° SSE
Cosmos 921 Rocket 2.8 09:11:43 10° S 09:15:45 63° ESE 09:15:45 63° ESE
Meteor 2-6 Rocket 4.2 09:10:07 10° S 09:15:57 87° W 09:21:40 10° N
CZ-4C R/B 2.9 09:17:00 74° W 09:17:00 74° W 09:20:13 10° SSW
Cosmos 1633 Rocket 2.9 09:12:37 10° N 09:17:00 86° E 09:21:23 10° S
Cosmos 1812 4.1 09:13:41 10° SSW 09:17:16 37° W 09:20:52 10° N
Meteor 2-8 Rocket 4.4 09:11:50 10° S 09:17:58 87° W 09:24:10 10° N
Okean O Rocket 1.7 09:14:36 10° S 09:19:02 76° WSW 09:23:30 10° NNW
CZ-4B R/B 3.9 09:22:22 10° S 09:27:42 54° W 09:32:57 10° NNW
CZ-4C R/B 3.1 09:22:32 10° NNW 09:29:59 58° NE 09:33:21 37° ESE
NOAA 15 4.4 09:26:19 10° SSE 09:31:33 69° ENE 09:36:49 10° N
BREEZE M DEB (TANK) 4.2 09:15:12 10° NW 09:31:51 70° SW 09:34:47 28° SSE
Meteor 1-10 Rocket 4.2 09:26:48 10° S 09:32:39 87° W 09:36:13 25° N
DMSP B5D2-2 3.9 09:32:36 48° NNE 09:34:07 86° ESE 09:39:21 10° SSW
GEOS 3 Rocket 4.5 09:36:29 35° N 09:36:29 35° N 09:39:50 10° NNW
CZ-2C R/B 4.2 09:34:38 10° N 09:39:10 32° WNW 09:43:41 10° SW
Feng Yun 1-1 Rocket 4.4 09:36:40 10° SSE 09:42:36 82° WSW 09:48:32 10° NNW
SL-08 RB Rocket 4.5 09:44:50 10° S 09:49:21 52° W 09:53:53 10° NNW
Cosmos 2266 Rocket 4.4 10:05:26 10° NNW 10:11:42 61° W 10:18:00 10° S
CZ-2C R/B 3.9 10:11:04 10° WSW 10:12:08 17° WSW 10:12:08 17° WSW
Cosmos 1980 Rocket 4.2 10:20:37 10° NW 10:25:05 25° WSW 10:29:33 10° SSW
CZ-4C R/B 4.4 11:11:37 10° NW 11:18:29 33° WSW 11:18:42 33° WSW
